Location: StarHub Observatory
(35.2598°N, 77.5855°W)
Time: 01:47:35
(UTC-05:00)

Hubble Space Telescope - Pass Details

Date: 02 December 2021
Orbit: 534 x 538 km, 28.5° (Epoch: 28 January)

Event Time Altitude Azimuth Distance (km) Brightness Sun altitude
Exits shadow 05:14:48 23° 202° (SSW) 1,147 2.3 -21.4°
Maximum altitude 05:15:14 24° 192° (SSW) 1,133 2.4 -21.3°
Drops below altitude 10° 05:18:33 10° 138° (SE) 1,772 4.2 -20.6°
Sets 05:21:07 0° 124° (SE) 2,661 5.6 -20.1°
